Wind_Speed
22 25 26 28 30 31 32 33 35 36 38 39 40 41 41 41 39 38 39 37 36 36 36 35 34 32 32 31 32 32 31 32 32 31 30 31 30 29 28 28 26 25 24
22 23 25 27 29 31 32 33 35 37 39 39 40 40 40 39 38 39 37 36 36 37 36 35 35 33 33 33 33 33 33 32 32 31 31 31 30 30 29 29 28 26 26
22 24 25 27 29 30 31 34 36 37 38 39 39 39 40 40 40 39 38 37 38 38 38 37 36 35 35 35 35 35 35 34 33 33 32 31 31 31 31 30 30 29 28
24 25 26 28 30 32 33 35 37 38 38 39 40 42 42 41 41 40 40 40 39 39 39 39 39 38 37 38 37 38 38 37 36 34 34 33 32 32 32 32 32 31 30
26 27 29 30 32 34 36 37 37 39 39 40 41 42 42 42 42 42 41 41 40 41 41 41 40 41 41 40 40 40 41 40 39 37 36 36 35 35 35 34 34 34 32
28 29 31 32 34 35 37 38 39 40 41 42 42 43 43 44 43 43 43 42 42 43 43 42 43 43 43 42 43 42 43 43 42 40 39 39 38 37 38 37 36 36 35
30 31 33 35 36 37 39 40 41 41 42 42 43 43 44 44 44 44 44 44 44 45 45 45 45 45 44 44 45 45 45 45 44 43 43 43 41 40 40 39 38 38 37
32 33 35 37 38 39 41 42 43 43 42 43 43 44 45 45 45 46 46 45 45 46 47 47 47 47 47 47 47 47 47 48 47 47 46 46 45 44 43 42 41 40 40
34 36 37 38 39 41 42 43 44 43 43 43 44 44 45 45 45 45 46 46 46 46 47 47 47 47 49 49 49 49 50 50 50 50 49 49 49 48 47 45 45 43 42
36 38 39 40 41 43 43 44 44 45 45 44 44 44 44 45 46 46 47 48 48 48 48 49 49 49 50 50 51 51 51 52 53 53 53 52 52 52 51 49 48 47 45
37 39 40 42 43 43 43 44 44 45 45 45 45 45 46 46 46 47 48 48 49 50 50 50 51 51 51 51 52 53 54 54 54 55 56 55 55 55 54 53 52 51 50
38 40 42 43 44 44 44 45 45 45 45 46 46 47 47 47 48 48 48 49 49 50 50 51 51 51 51 51 52 53 54 54 55 56 57 57 57 56 56 56 55 54 53
40 42 43 44 44 44 44 44 45 46 46 47 47 47 47 48 47 48 48 49 49 50 51 51 51 51 52 52 52 53 54 55 55 56 57 57 58 58 58 57 57 56 55
42 43 44 45 45 45 45 45 45 46 46 46 46 47 47 47 47 47 47 47 48 49 50 51 51 51 52 52 53 54 55 56 57 56 57 58 59 59 59 59 59 57 56
43 44 45 46 46 45 46 46 45 45 45 45 46 46 46 46 46 46 47 48 48 48 48 48 48 49 50 51 52 53 54 55 56 56 57 57 58 59 60 60 60 59 58
44 45 46 47 46 46 46 45 45 45 45 45 45 45 45 45 45 44 44 45 45 45 44 44 44 44 45 46 47 49 51 53 55 55 56 57 59 59 60 60 60 59 59
46 47 48 48 47 46 46 45 45 45 45 44 43 44 44 44 43 41 40 39 39 39 38 38 38 39 40 42 43 44 46 49 52 54 54 55 57 58 59 60 61 61 60
47 48 48 48 47 46 45 44 45 45 43 43 43 43 42 41 40 39 37 35 34 34 34 34 34 34 36 38 39 40 42 45 47 49 51 53 55 56 57 58 59 59 59
48 49 49 48 47 46 45 44 44 43 42 42 41 41 41 40 38 36 34 32 31 29 29 29 30 30 31 32 34 36 38 40 42 45 47 49 51 53 54 55 55 56 57
48 49 48 48 47 45 44 44 42 42 42 41 41 41 40 39 37 34 32 30 28 27 26 25 25 26 26 27 29 31 33 35 37 40 42 45 47 49 50 50 51 52 53
48 49 48 47 46 44 43 42 42 41 41 40 40 40 39 37 35 32 30 28 26 24 23 22 22 21 22 22 24 26 28 30 32 35 37 39 42 44 45 46 47 47 49
47 48 47 46 45 44 42 42 41 41 40 40 40 39 38 36 33 30 28 26 25 23 21 19 18 18 17 18 19 21 24 25 27 30 33 35 38 40 42 43 44 44 45
47 47 47 46 45 43 42 41 41 39 39 39 39 38 37 35 32 29 27 25 24 22 20 18 16 15 14 14 14 15 18 21 24 26 29 31 33 35 38 40 41 41 42
46 46 46 45 44 42 41 40 40 39 38 38 38 38 36 34 31 28 26 24 23 21 19 17 15 13 11 10 10 10 13 16 19 21 24 26 28 30 33 35 37 38 38
45 46 46 44 43 42 40 40 39 38 37 37 37 36 35 33 31 28 26 25 23 21 19 16 13 11 10 9 7 7 8 11 14 17 19 22 25 27 30 32 33 34 35
45 45 44 44 42 41 40 39 38 37 36 36 36 35 34 32 31 29 27 25 23 21 19 17 14 12 10 8 7 6 6 8 11 14 16 19 22 24 26 29 31 32 33
Wind_Direction
284 282 282 284 282 282 284 285 286 287 288 288 288 287 288 286 286 286 286 283 280 279 277 277 274 273 273 269 266 265 262 259 255 254 253 252 251 249 246 245 244 244 241
289 288 287 288 288 288 287 288 288 288 288 288 288 288 287 286 285 285 284 282 281 280 277 275 273 271 271 269 266 261 258 256 254 252 251 251 249 247 244 243 242 241 240
297 295 294 292 292 291 291 290 290 289 289 289 288 288 289 288 286 285 284 283 282 281 277 273 271 268 269 267 264 260 257 255 253 252 250 249 248 247 244 243 242 241 240
302 300 298 296 295 294 294 293 291 291 290 289 289 289 289 288 287 286 283 282 280 279 277 273 269 268 267 265 262 261 258 255 252 252 249 248 249 247 243 242 241 241 240
306 303 301 300 298 298 297 296 295 295 294 292 291 290 289 288 287 286 284 282 279 277 276 272 269 267 264 262 263 262 258 253 251 250 249 248 249 246 243 241 240 240 239
309 306 305 304 303 302 301 300 299 299 297 296 294 292 290 288 287 286 284 282 280 277 276 273 270 268 266 263 262 260 257 253 250 248 247 248 247 246 243 241 241 240 239
315 313 311 309 308 306 305 304 302 301 299 297 294 293 291 289 287 286 285 283 281 278 276 274 271 268 266 264 261 260 255 251 249 247 246 246 245 243 242 241 241 240 240
319 317 316 314 312 310 308 306 304 303 301 298 296 293 291 289 287 286 285 283 281 279 276 274 271 268 265 263 261 259 254 251 249 247 247 246 243 242 241 242 242 241 240
322 320 319 317 315 313 311 309 307 306 304 301 298 295 293 290 288 287 286 284 282 280 276 273 270 267 265 263 261 258 254 251 248 247 246 245 243 242 242 242 242 241 241
324 323 321 320 318 316 314 312 310 308 305 303 301 298 294 291 289 287 286 285 283 281 278 275 272 268 266 263 260 257 254 252 250 247 245 243 241 242 242 243 243 242 240
326 325 323 322 320 318 316 314 312 310 308 306 303 300 297 293 290 288 286 285 283 281 278 276 273 269 267 264 260 256 253 251 249 247 245 243 242 242 242 242 243 242 241
328 326 325 323 321 319 317 315 313 311 309 307 305 302 300 297 292 289 287 285 283 280 278 276 273 270 267 263 260 256 253 251 249 248 245 244 243 242 241 241 242 242 240
329 328 326 325 323 320 318 316 314 312 311 309 307 304 302 299 295 290 288 286 283 280 278 276 273 270 267 262 259 256 253 251 249 248 246 244 242 242 241 240 240 240 239
330 329 328 327 325 322 320 319 317 316 314 312 310 308 305 302 298 294 290 287 284 281 278 276 273 270 267 263 260 257 253 250 248 247 246 244 241 241 240 240 239 239 239
332 331 330 329 327 325 323 321 320 318 317 315 313 311 309 306 302 298 294 290 286 283 280 277 274 271 266 263 260 256 252 250 247 246 245 244 242 241 240 239 238 238 239
334 333 333 331 329 327 325 324 322 321 320 318 316 315 313 310 307 303 299 294 289 286 283 279 276 271 266 263 260 256 252 249 246 244 243 243 242 240 240 239 238 238 239
337 336 335 333 332 330 328 327 325 324 323 322 321 320 318 315 313 309 305 300 294 289 285 282 277 272 265 261 257 254 250 248 245 242 241 241 241 240 240 239 238 238 238
339 338 336 335 334 333 331 330 329 328 327 326 325 324 322 320 318 315 311 306 301 295 288 282 278 273 268 262 258 254 250 247 243 241 239 239 239 239 238 238 238 238 237
339 339 338 337 336 335 334 333 332 332 331 330 329 328 327 325 323 320 317 312 306 300 294 290 283 276 271 265 258 253 249 247 244 241 239 238 237 236 236 236 237 237 237
339 339 339 338 338 337 336 336 335 335 335 334 333 332 331 329 328 325 321 318 313 307 301 296 289 282 275 267 260 254 249 247 243 240 237 236 235 234 234 234 234 235 236
340 340 341 340 340 339 339 339 338 338 339 338 337 335 334 334 333 330 327 324 320 314 309 303 296 288 280 271 263 256 250 245 240 236 235 235 234 233 232 231 232 233 234
341 342 342 342 342 342 342 342 342 342 342 342 341 340 339 338 337 335 333 331 327 322 316 310 304 295 287 277 268 258 249 243 238 235 235 235 233 232 231 230 230 231 232
342 343 344 344 344 344 344 344 345 345 345 345 346 346 345 344 342 341 339 338 336 331 326 318 310 303 294 287 277 261 248 242 237 236 235 231 230 229 228 228 229 229 231
342 343 345 345 345 345 345 346 347 347 348 348 350 350 350 350 349 347 345 344 343 340 335 329 320 311 303 297 286 268 250 242 235 232 230 227 225 225 225 225 226 226 227
342 343 345 346 346 347 347 347 348 349 350 351 353 355 355 356 356 355 353 351 349 346 344 340 335 326 316 307 294 274 248 235 228 226 225 223 222 223 223 223 223 224 225
343 344 345 346 347 348 349 349 350 350 352 354 356 357 359 0 2 2 0 359 359 356 354 350 344 337 329 318 302 280 258 238 227 223 221 219 220 221 221 221 220 221 222
Height
5845 5844 5842 5840 5839 5838 5835 5834 5831 5830 5828 5826 5823 5820 5818 5816 5814 5812 5811 5809 5808 5807 5807 5807 5807 5808 5808 5809 5810 5812 5813 5814 5817 5819 5821 5823 5825 5827 5830 5832 5835 5837 5840
5841 5839 5837 5835 5833 5832 5829 5827 5825 5822 5820 5818 5815 5812 5810 5808 5806 5804 5803 5801 5800 5799 5798 5798 5798 5799 5800 5801 5802 5803 5804 5806 5809 5811 5813 5815 5818 5820 5823 5826 5829 5832 5834
5836 5834 5832 5830 5828 5825 5823 5820 5817 5815 5812 5809 5806 5803 5801 5799 5797 5796 5794 5793 5792 5790 5789 5789 5790 5790 5791 5792 5793 5794 5796 5798 5800 5803 5805 5808 5811 5813 5816 5819 5822 5825 5828
5831 5829 5826 5824 5821 5818 5816 5813 5810 5806 5803 5800 5797 5794 5792 5790 5788 5786 5785 5783 5782 5781 5780 5779 5780 5781 5782 5783 5784 5785 5786 5789 5792 5794 5797 5800 5803 5806 5809 5812 5815 5818 5822
5825 5823 5820 5817 5814 5811 5807 5804 5801 5797 5794 5790 5786 5783 5781 5779 5777 5775 5774 5772 5771 5770 5770 5769 5769 5771 5772 5773 5774 5775 5777 5779 5782 5785 5788 5791 5794 5798 5801 5804 5808 5811 5815
5820 5817 5814 5810 5807 5803 5799 5795 5791 5788 5784 5780 5776 5773 5770 5768 5765 5763 5762 5761 5759 5758 5758 5758 5758 5759 5760 5761 5762 5763 5765 5768 5771 5775 5779 5782 5785 5788 5792 5796 5800 5804 5807
5814 5811 5807 5803 5799 5794 5790 5785 5781 5778 5773 5769 5766 5762 5759 5756 5754 5751 5750 5748 5747 5746 5745 5745 5746 5746 5747 5749 5749 5750 5752 5756 5760 5764 5768 5771 5775 5778 5783 5786 5790 5795 5799
5808 5805 5800 5795 5790 5785 5780 5775 5771 5767 5763 5758 5754 5751 5747 5744 5741 5739 5736 5735 5733 5732 5731 5731 5732 5733 5734 5735 5737 5738 5740 5743 5747 5751 5755 5759 5763 5768 5772 5776 5781 5785 5790
5803 5799 5793 5788 5782 5777 5771 5765 5760 5755 5751 5747 5742 5738 5735 5731 5728 5725 5722 5720 5719 5718 5716 5716 5717 5718 5719 5720 5722 5724 5726 5729 5733 5737 5742 5746 5751 5756 5760 5765 5770 5775 5780
5798 5792 5786 5780 5774 5768 5761 5755 5749 5744 5739 5734 5730 5726 5722 5718 5715 5711 5709 5706 5704 5702 5701 5700 5701 5702 5703 5704 5706 5709 5711 5715 5718 5722 5728 5733 5737 5742 5748 5753 5758 5763 5769
5792 5786 5780 5773 5766 5759 5752 5746 5739 5733 5727 5722 5717 5712 5708 5704 5700 5697 5694 5691 5688 5686 5685 5684 5684 5685 5686 5687 5689 5692 5695 5699 5702 5706 5712 5718 5723 5728 5734 5740 5745 5751 5757
5787 5780 5773 5765 5758 5751 5743 5736 5729 5723 5716 5710 5704 5698 5693 5688 5684 5681 5677 5674 5672 5669 5667 5666 5666 5667 5668 5669 5671 5674 5678 5682 5686 5690 5696 5702 5707 5713 5719 5726 5732 5737 5743
5781 5773 5765 5758 5750 5742 5734 5727 5719 5712 5705 5698 5691 5685 5679 5673 5668 5664 5661 5657 5654 5651 5650 5648 5648 5648 5649 5650 5652 5655 5659 5664 5668 5673 5679 5685 5691 5697 5704 5710 5717 5723 5730
5774 5766 5758 5750 5741 5733 5725 5717 5709 5701 5693 5686 5679 5672 5665 5659 5653 5648 5644 5640 5636 5634 5632 5630 5629 5629 5629 5631 5634 5636 5641 5645 5651 5656 5662 5668 5674 5681 5688 5695 5702 5708 5715
5768 5759 5750 5741 5732 5724 5715 5707 5699 5691 5683 5675 5667 5659 5652 5645 5639 5633 5627 5623 5619 5616 5613 5612 5611 5610 5611 5613 5615 5618 5622 5627 5633 5638 5644 5651 5657 5664 5671 5679 5686 5693 5701
5761 5752 5743 5733 5724 5715 5707 5698 5689 5681 5672 5664 5656 5648 5640 5632 5625 5618 5612 5607 5602 5599 5596 5594 5593 5593 5593 5595 5597 5600 5604 5609 5615 5621 5627 5634 5640 5648 5655 5662 5670 5678 5685
5754 5745 5736 5726 5716 5707 5698 5689 5680 5671 5662 5654 5645 5637 5628 5620 5612 5605 5598 5593 5588 5584 5581 5579 5578 5577 5577 5578 5580 5583 5587 5592 5598 5605 5611 5617 5624 5631 5639 5646 5654 5662 5670
5748 5739 5729 5719 5709 5700 5690 5681 5671 5662 5653 5644 5636 5627 5618 5609 5601 5594 5586 5580 5575 5571 5568 5566 5564 5563 5563 5564 5566 5568 5572 5576 5582 5589 5595 5601 5608 5615 5624 5631 5639 5646 5655
5742 5732 5722 5712 5702 5693 5683 5674 5664 5655 5645 5636 5627 5618 5609 5600 5592 5584 5577 5570 5565 5561 5557 5555 5553 5552 5551 5551 5553 5556 5559 5563 5569 5575 5581 5587 5593 5601 5609 5618 5626 5633 5640
5737 5727 5716 5706 5696 5687 5677 5667 5658 5648 5639 5629 5620 5610 5601 5592 5584 5576 5569 5562 5557 5553 5549 5546 5543 5541 5541 5541 5542 5544 5548 5552 5557 5562 5568 5574 5580 5587 5595 5603 5611 5619 5626
5731 5721 5711 5701 5691 5681 5671 5662 5652 5643 5633 5623 5614 5604 5595 5586 5577 5569 5562 5556 5551 5546 5542 5539 5536 5534 5533 5532 5533 5535 5538 5541 5545 5551 5556 5562 5569 5576 5583 5591 5599 5606 5613
5727 5717 5706 5696 5686 5676 5667 5657 5648 5638 5628 5619 5609 5599 5590 5581 5572 5565 5558 5552 5546 5541 5537 5533 5531 5528 5527 5526 5527 5528 5530 5533 5537 5542 5547 5553 5559 5566 5573 5581 5588 5595 5602
5722 5712 5702 5692 5682 5672 5662 5653 5644 5634 5625 5615 5605 5595 5586 5577 5569 5561 5555 5548 5542 5537 5533 5530 5527 5525 5523 5522 5522 5522 5524 5527 5530 5535 5540 5545 5550 5557 5563 5571 5578 5585 5592
5718 5708 5698 5688 5678 5668 5659 5650 5640 5631 5622 5613 5603 5593 5584 5575 5567 5559 5552 5546 5541 5536 5531 5527 5524 5522 5521 5520 5519 5519 5520 5522 5525 5529 5534 5539 5544 5550 5556 5562 5569 5576 5583
5713 5704 5694 5684 5675 5665 5656 5647 5638 5629 5620 5611 5602 5592 5583 5574 5566 5559 5552 5546 5540 5535 5530 5526 5523 5521 5519 5518 5518 5517 5518 5519 5522 5525 5529 5533 5538 5543 5549 5555 5561 5568 5574
5709 5700 5691 5681 5672 5663 5654 5645 5636 5627 5619 5610 5601 5592 5583 5575 5567 5560 5553 5547 5541 5535 5531 5527 5523 5521 5519 5517 5516 5516 5517 5518 5519 5522 5525 5529 5533 5537 5542 5548 5554 5561 5567